[[{"header":{"parameterUnit":"m.s-1","parameterCategory":1,"la1":30.2991,"la2":30.254,"lo1":-89.0895,"lo2":-89.0444,"dy":0.0017,"dx":0.0017,"nx":28,"ny":28,"refTime":"2025-03-07T09:00:00:Z","depth":0,"parameterNumber":2,"parameterNumberName":"U-component_of_WINDS"},"data":[0,0,0,0,0,0,0,0,0,0,0,0,0,0,0,0,0,0,0,0,0,0,0,0,0,0,0,0,0,0,0,0,0,0,0,0,0,0,0,0,0,0,0,0,0,0,0,0,0,0,0,0,0,0,0,0,0,0,-0.8332,-0.8333,0,-0.8401,-0.8402,-0.8403,-0.8444,-0.8444,-0.8445,-0.8445,-0.8518,-0.852,-0.8521,0,0,0,0,0,0,0,0,0,0,0,0,0,-0.8239,-0.824,-0.8332,-0.8333,-0.8334,-0.8401,-0.8402,-0.8403,-0.8444,-0.8444,-0.8445,-0.8445,-0.8517,-0.8519,-0.8522,0,0,0,0,0,0,0,0,0,0,0,0,0,-0.8291,-0.8241,-0.8332,-0.8363,-0.8366,-0.8401,-0.8402,-0.8404,-0.8444,-0.8444,-0.8445,-0.8445,-0.8517,-0.8519,-0.8522,-0.8533,0,0,-0.853,-0.8531,0,0,0,0,0,0,0,0,-0.8288,-0.8294,-0.8357,-0.836,-0.8364,-0.8414,-0.8396,-0.8447,-0.8444,-0.8415,-0.8445,-0.8445,-0.8483,-0.8489,-0.8501,-0.8536,-0.854,-0.853,-0.8532,-0.8533,-0.8534,0,0,0,0,0,0,0,-0.8284,-0.8291,-0.836,-0.8358,-0.8362,-0.8374,-0.8381,-0.8406,-0.8447,-0.8417,-0.842,-0.8428,-0.8485,-0.8499,-0.8503,-0.8541,-0.853,-0.8533,-0.8534,-0.8535,-0.8589,-0.8589,0,0,0,0,0,0,-0.8275,-0.8288,-0.8358,-0.8362,-0.8326,-0.8375,-0.8384,-0.8398,-0.8447,-0.8454,-0.8427,-0.8429,-0.8494,-0.85,-0.8506,-0.8523,-0.8533,-0.8535,-0.8537,-0.8589,-0.8589,-0.8589,0,0,0,0,0,0,-0.8273,-0.8281,-0.8355,-0.8326,-0.8336,-0.8376,-0.8392,-0.8399,-0.8413,-0.8454,-0.8462,-0.8433,-0.8494,-0.8502,-0.8526,-0.8526,-0.8537,-0.8539,-0.859,-0.8589,-0.8589,-0.8555,0,0,0,0,0,0,-0.827,-0.828,-0.8284,-0.8326,-0.8337,-0.8373,-0.8392,-0.8401,-0.8417,-0.842,-0.8462,-0.8469,-0.8495,-0.8522,-0.8529,-0.853,-0.8541,-0.859,-0.8589,-0.8589,-0.8557,-0.8554,-0.8552,0,0,0,0,0,-0.8267,-0.8272,-0.8284,-0.8292,-0.8343,-0.8372,-0.8379,-0.8409,-0.8417,-0.8421,-0.8448,-0.8468,-0.8525,-0.8524,-0.8532,-0.8534,-0.859,-0.859,-0.8589,-0.8558,-0.8554,-0.8552,0,0,0,0,0,0,-0.823,-0.8278,-0.8292,-0.831,-0.8337,-0.8379,-0.8386,-0.8404,-0.843,-0.8432,-0.8468,-0.8477,-0.8497,-0.8518,-0.8516,-0.8547,-0.856,-0.8561,-0.8533,-0.853,-0.8528,-0.8522,-0.8543,0,0,0,0,0,-0.8224,-0.8243,-0.8284,-0.8297,-0.831,-0.8345,-0.8359,-0.838,-0.8409,-0.8421,-0.8449,-0.8478,-0.8502,-0.8517,-0.8542,-0.856,-0.857,-0.8565,-0.8563,-0.856,-0.8561,-0.8573,-0.8571,-0.8588,-0.8588,-0.8588,0,0,-0.8212,-0.8241,-0.825,-0.829,-0.8313,-0.8333,-0.8355,-0.8374,-0.839,-0.8424,-0.8448,-0.847,-0.8504,-0.8525,-0.8536,-0.8543,-0.8559,-0.856,-0.8558,-0.856,-0.8572,-0.8571,-0.8569,-0.8587,-0.8588,-0.8588,0,0,-0.82,-0.8223,-0.8237,-0.8259,-0.8293,-0.8317,-0.832,-0.836,-0.8376,-0.84,-0.8426,-0.8446,-0.8487,-0.851,-0.8527,-0.8525,-0.8544,-0.8532,-0.8519,-0.8529,-0.8528,-0.8527,-0.8527,-0.8526,-0.8532,-0.8532,-0.8532,0,-0.8181,-0.8211,-0.8241,-0.826,-0.8277,-0.8308,-0.8322,-0.8343,-0.8384,-0.8395,-0.8402,-0.8455,-0.848,-0.8507,-0.8506,-0.8519,-0.8525,-0.8527,-0.8526,-0.8525,-0.8525,-0.8524,-0.8524,-0.8531,-0.8531,-0.8531,-0.8531,0,-0.8186,-0.8206,-0.8213,-0.8251,-0.8269,-0.8285,-0.8319,-0.8333,-0.8352,-0.8376,-0.8401,-0.8432,-0.8464,-0.8472,-0.8491,-0.8502,-0.8505,-0.8519,-0.8532,-0.8521,-0.8521,-0.8521,-0.8528,-0.8529,-0.8529,-0.853,0,0,-0.8152,-0.8207,-0.8209,-0.8226,-0.8267,-0.8284,-0.8302,-0.8332,-0.8344,-0.8371,-0.8388,-0.8422,-0.8435,-0.8454,-0.8477,-0.8486,-0.8482,-0.8499,-0.85,-0.8494,-0.8497,-0.8486,-0.8486,-0.8495,-0.8495,-0.8495,-0.8494,0,-0.8146,-0.8179,-0.8207,-0.823,-0.825,-0.828,-0.8296,-0.8323,-0.8345,-0.8366,-0.8392,-0.8415,-0.843,-0.8442,-0.8453,-0.848,-0.8483,-0.8481,-0.8512,-0.8512,-0.8502,-0.8486,-0.8475,-0.8472,-0.8494,-0.8494,-0.8494,0,-0.8144,-0.8169,-0.8193,-0.8232,-0.8241,-0.8255,-0.8285,-0.8304,-0.8336,-0.8352,-0.8373,-0.8396,-0.8418,-0.8429,-0.8459,-0.8457,-0.8471,-0.8487,-0.8487,-0.8491,-0.8502,-0.8489,-0.8471,-0.8471,-0.8495,-0.8495,-0.8495,0,-0.8117,-0.8157,-0.8177,-0.8191,-0.8237,-0.8245,-0.8265,-0.8297,-0.8313,-0.834,-0.8352,-0.8381,-0.8397,-0.842,-0.845,-0.8455,-0.8478,-0.8491,-0.8492,-0.8491,-0.8495,-0.8494,-0.8479,-0.8504,-0.8504,-0.8504,-0.8504,0,-0.8107,-0.8121,-0.8165,-0.8178,-0.8194,-0.8227,-0.8243,-0.8266,-0.8294,-0.8311,-0.834,-0.8356,-0.8396,-0.8417,-0.8441,-0.8463,-0.847,-0.8484,-0.849,-0.8482,-0.848,-0.8491,-0.8492,-0.8504,-0.8504,-0.8504,-0.8504,0,-0.808,-0.811,-0.8134,-0.8175,-0.8185,-0.8196,-0.8232,-0.8245,-0.8269,-0.8292,-0.8299,-0.8337,-0.8364,-0.8397,-0.8434,-0.845,-0.847,-0.8479,-0.8459,-0.8462,-0.8461,-0.8461,-0.8453,-0.8454,-0.8478,-0.8478,-0.8478,0,-0.8072,-0.8083,-0.8125,-0.8138,-0.8157,-0.8178,-0.8195,-0.8228,-0.8245,-0.8282,-0.8291,-0.832,-0.8344,-0.8386,-0.8418,-0.8447,-0.8457,-0.8452,-0.8462,-0.8452,-0.8457,-0.8456,-0.8457,-0.845,-0.8449,-0.8449,-0.8449,0,-0.8054,-0.8068,-0.8091,-0.8119,-0.8138,-0.8162,-0.8187,-0.8197,-0.8236,-0.8253,-0.828,-0.8299,-0.8337,-0.8366,-0.8399,-0.842,-0.8441,-0.8445,-0.8447,-0.8438,-0.8426,-0.8433,-0.8452,-0.8445,-0.8446,-0.8446,-0.8446,-0.8446,-0.8036,-0.8047,-0.8078,-0.8103,-0.8125,-0.8148,-0.8163,-0.8189,-0.8212,-0.8245,-0.8263,-0.829,-0.8322,-0.8369,-0.8389,-0.8411,-0.8419,-0.8421,-0.8422,-0.8422,-0.8419,-0.8422,-0.8418,-0.8418,-0.8418,-0.8418,-0.8418,0,-0.802,-0.8041,-0.8063,-0.8097,-0.8117,-0.8134,-0.8163,-0.8179,-0.8201,-0.8229,-0.8253,-0.8284,-0.8312,-0.8346,-0.8376,-0.8387,-0.8398,-0.8394,-0.8394,-0.8398,-0.8411,-0.8406,-0.8385,-0.8385,-0.8385,-0.8385,-0.8385,-0.8385,-0.8013,-0.8033,-0.8052,-0.8084,-0.8106,-0.8131,-0.8146,-0.8168,-0.819,-0.8224,-0.8247,-0.8268,-0.8299,-0.8332,-0.8358,-0.8368,-0.8378,-0.8371,-0.8383,-0.8394,-0.8397,-0.84,-0.8396,-0.8373,-0.8373,-0.8369,-0.8369,-0.8369]},{"header":{"parameterUnit":"m.s-1","parameterCategory":1,"la1":30.2991,"la2":30.254,"lo1":-89.0895,"lo2":-89.0444,"dy":0.0017,"dx":0.0017,"nx":28,"ny":28,"refTime":"2025-03-07T09:00:00:Z","depth":0,"parameterNumber":3,"parameterNumberName":"V-component_of_WINDS"},"data":[0,0,0,0,0,0,0,0,0,0,0,0,0,0,0,0,0,0,0,0,0,0,0,0,0,0,0,0,0,0,0,0,0,0,0,0,0,0,0,0,0,0,0,0,0,0,0,0,0,0,0,0,0,0,0,0,0,0,4.1346,4.1346,0,4.1385,4.1386,4.1386,4.1382,4.1382,4.1381,4.1381,4.1417,4.1418,4.142,0,0,0,0,0,0,0,0,0,0,0,0,0,4.1264,4.1265,4.1346,4.1346,4.1347,4.1385,4.1386,4.1386,4.1382,4.1382,4.1381,4.138,4.1416,4.1418,4.142,0,0,0,0,0,0,0,0,0,0,0,0,0,4.1301,4.1266,4.1346,4.135,4.135,4.1385,4.1386,4.1386,4.1383,4.1382,4.1381,4.138,4.1416,4.1418,4.142,4.1452,0,0,4.1427,4.1428,0,0,0,0,0,0,0,0,4.1299,4.1304,4.1349,4.1349,4.135,4.1378,4.137,4.1408,4.1383,4.137,4.1381,4.138,4.1404,4.1408,4.1417,4.1454,4.1456,4.1427,4.1429,4.143,4.143,0,0,0,0,0,0,0,4.1296,4.1302,4.1361,4.1349,4.135,4.1348,4.1353,4.1377,4.1392,4.1371,4.1371,4.1376,4.1405,4.1415,4.1418,4.1456,4.1427,4.1429,4.1431,4.1432,4.1523,4.1524,0,0,0,0,0,0,4.1293,4.13,4.136,4.1362,4.1322,4.1351,4.1355,4.137,4.1392,4.1394,4.1377,4.1376,4.1411,4.1415,4.1419,4.1459,4.143,4.1432,4.1433,4.1522,4.1523,4.1524,0,0,0,0,0,0,4.1291,4.1299,4.1358,4.1331,4.1339,4.1353,4.1369,4.1371,4.1381,4.1396,4.1398,4.1385,4.1411,4.1416,4.1445,4.146,4.1433,4.1435,4.152,4.1522,4.1523,4.1538,0,0,0,0,0,0,4.1289,4.1298,4.1311,4.1332,4.134,4.1385,4.137,4.1373,4.1386,4.1385,4.1404,4.1406,4.141,4.1441,4.1447,4.1462,4.1437,4.1519,4.1521,4.1523,4.1536,4.154,4.1543,0,0,0,0,0,4.1286,4.1312,4.1312,4.1319,4.1357,4.1385,4.139,4.1396,4.1387,4.14,4.1409,4.1405,4.1457,4.1444,4.1451,4.1467,4.1518,4.152,4.1523,4.1535,4.1539,4.1543,0,0,0,0,0,0,4.1291,4.1315,4.1315,4.1349,4.1365,4.1385,4.1401,4.14,4.1419,4.1417,4.1422,4.1426,4.1456,4.1464,4.1449,4.15,4.1486,4.149,4.1493,4.1498,4.1501,4.1498,4.1439,0,0,0,0,0,4.1297,4.1319,4.1338,4.1366,4.1375,4.1387,4.1399,4.1402,4.1419,4.1426,4.1437,4.1453,4.1473,4.1485,4.1504,4.1537,4.1542,4.1552,4.1555,4.1558,4.1561,4.158,4.1585,4.1532,4.1532,4.1532,0,0,4.1307,4.1323,4.1337,4.1368,4.1381,4.1403,4.1392,4.1416,4.1432,4.1429,4.1458,4.1466,4.1484,4.1515,4.153,4.1523,4.1577,4.1561,4.1563,4.1565,4.1583,4.1588,4.1592,4.1533,4.1533,4.1533,0,0,4.1339,4.1353,4.1378,4.1392,4.1413,4.1421,4.1427,4.1448,4.1454,4.1483,4.1482,4.15,4.1534,4.1547,4.1558,4.1596,4.1593,4.1601,4.1619,4.1637,4.1642,4.1645,4.1659,4.1664,4.1605,4.1605,4.1605,0,4.1349,4.1383,4.1391,4.1416,4.1429,4.1429,4.1455,4.1467,4.1493,4.1502,4.1495,4.1538,4.155,4.1585,4.1594,4.1603,4.161,4.1599,4.1641,4.1644,4.1648,4.1661,4.1666,4.1606,4.1605,4.1605,4.1605,0,4.1395,4.1419,4.1437,4.1464,4.148,4.1504,4.1515,4.1529,4.1532,4.154,4.157,4.1584,4.1607,4.1615,4.1616,4.165,4.1646,4.164,4.1626,4.1654,4.1667,4.1672,4.1607,4.1607,4.1606,4.1606,0,0,4.143,4.1462,4.1469,4.1481,4.1505,4.1523,4.1548,4.1571,4.1584,4.1601,4.1622,4.1652,4.1647,4.1659,4.1662,4.1678,4.1708,4.167,4.167,4.1677,4.1746,4.1751,4.1757,4.1706,4.1707,4.1708,4.1745,0,4.1464,4.151,4.1518,4.1557,4.1579,4.158,4.1601,4.1618,4.1627,4.1646,4.1655,4.1676,4.1667,4.1675,4.1691,4.1701,4.1722,4.1698,4.1725,4.1726,4.1721,4.1763,4.1769,4.1803,4.175,4.1751,4.1751,0,4.1509,4.1531,4.1573,4.1595,4.1604,4.1624,4.1647,4.1665,4.1684,4.1689,4.1704,4.1705,4.173,4.1716,4.175,4.1734,4.1746,4.1752,4.1753,4.1756,4.174,4.1768,4.1814,4.182,4.1759,4.1758,4.1758,0,4.1531,4.157,4.1601,4.1611,4.1637,4.1651,4.1662,4.168,4.1694,4.1714,4.1723,4.1744,4.1756,4.1772,4.1779,4.1768,4.1813,4.1799,4.1818,4.1818,4.1828,4.1827,4.1877,4.1834,4.1834,4.1834,4.1834,0,4.1568,4.1594,4.1611,4.163,4.1659,4.1668,4.1696,4.1706,4.1722,4.1743,4.1744,4.1762,4.1771,4.179,4.1796,4.1824,4.1829,4.1833,4.1834,4.1834,4.1833,4.1841,4.1839,4.1835,4.1835,4.1835,4.1835,0,4.1598,4.161,4.1644,4.1666,4.1673,4.1693,4.1712,4.173,4.1739,4.1765,4.1771,4.1785,4.1808,4.1817,4.1845,4.1849,4.1882,4.188,4.1876,4.1876,4.1895,4.1893,4.1952,4.196,4.1911,4.1912,4.1912,0,4.1621,4.1641,4.1667,4.1682,4.1694,4.1717,4.1732,4.1741,4.1756,4.178,4.1795,4.1819,4.1838,4.1876,4.1888,4.1909,4.1909,4.1928,4.1912,4.1911,4.191,4.1909,4.1911,4.1931,4.1931,4.1932,4.1932,0,4.1661,4.1666,4.1689,4.1714,4.1732,4.1752,4.1771,4.1782,4.1794,4.1811,4.1836,4.1852,4.1882,4.1905,4.1928,4.1938,4.1937,4.1937,4.1943,4.1942,4.1939,4.1942,4.1885,4.1936,4.1935,4.1935,4.1935,4.1935,4.1688,4.1707,4.1728,4.1754,4.1769,4.1787,4.1806,4.1818,4.184,4.1866,4.1869,4.1897,4.1915,4.1945,4.1957,4.1977,4.1972,4.198,4.1982,4.1984,4.1986,4.1936,4.1981,4.1981,4.1981,4.1981,4.1981,0,4.1729,4.1743,4.1766,4.1794,4.1814,4.1813,4.1834,4.1851,4.1875,4.1893,4.1913,4.1942,4.1965,4.198,4.2003,4.2017,4.2017,4.2022,4.2022,4.2024,4.1989,4.1982,4.2022,4.2022,4.2022,4.2022,4.2022,4.2022,4.1752,4.1784,4.1793,4.1832,4.1846,4.1874,4.1886,4.1903,4.1917,4.1951,4.1971,4.198,4.1997,4.2022,4.2043,4.2046,4.2055,4.2061,4.2064,4.2031,4.2027,4.2023,4.2016,4.2063,4.2063,4.2098,4.2098,4.2099]}]]